EZY534 EGAC-EGGP

Flight info

Callsign EZY534
Flight time 0h 31m
Altitude 23000
Route DUFFY L10 RINGA Q39 DANDI DCT PENIL
Aircraft A320/M-SDE3FGHIRWY/LB1

Departure

Time 2026-05-04 18:59
Airport George Best Belfast City Airport (EGAC)

Arrival

Time 2026-05-04 19:30
Airport Liverpool John Lennon Airport (EGGP)
Time Latitude Longitude Altitude Speed Heading
2026-05-04 18:37 54.61539 -5.87099 21 ft 0 kts 125°
2026-05-04 18:51 54.61540 -5.87103 21 ft 3 kts 125°
2026-05-04 18:51 54.61557 -5.87137 23 ft 4 kts 143°
2026-05-04 18:52 54.61579 -5.87155 21 ft 4 kts 184°
2026-05-04 18:52 54.61595 -5.87147 23 ft 1 kts 213°
2026-05-04 18:52 54.61597 -5.87145 23 ft 0 kts 213°
2026-05-04 18:55 54.61584 -5.87160 22 ft 0 kts 214°
2026-05-04 18:55 54.61550 -5.87200 21 ft 9 kts 214°
2026-05-04 18:56 54.61501 -5.87258 21 ft 8 kts 215°
2026-05-04 18:56 54.61460 -5.87308 21 ft 7 kts 214°
2026-05-04 18:56 54.61421 -5.87358 21 ft 11 kts 221°
2026-05-04 18:56 54.61357 -5.87476 21 ft 15 kts 216°
2026-05-04 18:57 54.61255 -5.87599 17 ft 20 kts 214°
2026-05-04 18:57 54.61149 -5.87725 17 ft 12 kts 214°
2026-05-04 18:57 54.61095 -5.87793 19 ft 8 kts 221°
2026-05-04 18:57 54.61084 -5.87828 19 ft 2 kts 255°
2026-05-04 18:58 54.61088 -5.87900 20 ft 13 kts 288°
2026-05-04 18:58 54.61140 -5.88012 18 ft 11 kts 336°
2026-05-04 18:58 54.61218 -5.87960 19 ft 19 kts 36°
2026-05-04 18:58 54.61527 -5.87592 14 ft 91 kts 35°
2026-05-04 18:59 54.62220 -5.86768 73 ft 144 kts 33°
2026-05-04 18:59 54.63026 -5.85807 744 ft 141 kts 36°
2026-05-04 18:59 54.63770 -5.84651 1378 ft 155 kts 56°
2026-05-04 18:59 54.63973 -5.82712 1745 ft 182 kts 102°
2026-05-04 19:00 54.63207 -5.80862 2093 ft 204 kts 141°
2026-05-04 19:00 54.61964 -5.79438 2403 ft 227 kts 150°
2026-05-04 19:00 54.60502 -5.78034 2811 ft 253 kts 152°
2026-05-04 19:00 54.58913 -5.76543 3483 ft 265 kts 152°
2026-05-04 19:01 54.57283 -5.74977 4357 ft 271 kts 151°
2026-05-04 19:01 54.55634 -5.73341 5268 ft 276 kts 151°
2026-05-04 19:01 54.53968 -5.71652 6183 ft 280 kts 150°
2026-05-04 19:01 54.52286 -5.69928 7042 ft 284 kts 150°
2026-05-04 19:02 54.50580 -5.68170 7905 ft 288 kts 150°
2026-05-04 19:02 54.48853 -5.66388 8739 ft 291 kts 150°
2026-05-04 19:02 54.47100 -5.64578 9602 ft 295 kts 150°
2026-05-04 19:02 54.45327 -5.62749 10365 ft 301 kts 150°
2026-05-04 19:03 54.43461 -5.60830 10644 ft 325 kts 150°
2026-05-04 19:03 54.41468 -5.58742 11010 ft 342 kts 146°
2026-05-04 19:03 54.39650 -5.56123 11683 ft 349 kts 135°
2026-05-04 19:03 54.38124 -5.52854 12416 ft 354 kts 125°
2026-05-04 19:04 54.36720 -5.49359 13169 ft 357 kts 125°
2026-05-04 19:04 54.35318 -5.45886 13929 ft 360 kts 125°
2026-05-04 19:04 54.33922 -5.42442 14543 ft 363 kts 125°
2026-05-04 19:04 54.32494 -5.38928 15159 ft 366 kts 125°
2026-05-04 19:05 54.31030 -5.35340 15818 ft 369 kts 125°
2026-05-04 19:05 54.29551 -5.31731 16452 ft 372 kts 125°
2026-05-04 19:05 54.28052 -5.28078 17074 ft 376 kts 125°
2026-05-04 19:05 54.26489 -5.24458 17666 ft 380 kts 127°
2026-05-04 19:06 54.24836 -5.20913 18295 ft 383 kts 129°
2026-05-04 19:06 54.23126 -5.17404 18859 ft 386 kts 130°
2026-05-04 19:06 54.21384 -5.13890 19366 ft 389 kts 130°
2026-05-04 19:06 54.19629 -5.10348 19887 ft 392 kts 130°
2026-05-04 19:07 54.17868 -5.06769 20411 ft 395 kts 129°
2026-05-04 19:07 54.16103 -5.03159 20905 ft 399 kts 129°
2026-05-04 19:07 54.14326 -4.99499 21388 ft 402 kts 129°
2026-05-04 19:07 54.12550 -4.95825 21968 ft 402 kts 128°
2026-05-04 19:08 54.10766 -4.92133 22487 ft 404 kts 128°
2026-05-04 19:08 54.08974 -4.88426 22953 ft 407 kts 128°
2026-05-04 19:08 54.07175 -4.84721 23072 ft 403 kts 128°
2026-05-04 19:08 54.05393 -4.81065 23091 ft 399 kts 128°
2026-05-04 19:09 54.03624 -4.77441 23090 ft 398 kts 129°
2026-05-04 19:09 54.01859 -4.73829 23096 ft 397 kts 128°
2026-05-04 19:09 54.00091 -4.70215 23089 ft 397 kts 128°
2026-05-04 19:09 53.98321 -4.66607 23084 ft 398 kts 128°
2026-05-04 19:10 53.96549 -4.63004 23085 ft 397 kts 129°
2026-05-04 19:10 53.94807 -4.59366 23084 ft 397 kts 124°
2026-05-04 19:10 53.93243 -4.55511 23033 ft 397 kts 123°
2026-05-04 19:10 53.91690 -4.51659 22519 ft 393 kts 123°
2026-05-04 19:11 53.90153 -4.47863 22064 ft 388 kts 123°
2026-05-04 19:11 53.88632 -4.44124 21613 ft 383 kts 123°
2026-05-04 19:11 53.87127 -4.40432 21163 ft 379 kts 124°
2026-05-04 19:11 53.85637 -4.36778 20709 ft 375 kts 124°
2026-05-04 19:12 53.84164 -4.33167 20258 ft 372 kts 123°
2026-05-04 19:12 53.81242 -4.26018 19337 ft 367 kts 124°
2026-05-04 19:12 53.79791 -4.22474 18871 ft 366 kts 124°
2026-05-04 19:13 53.78342 -4.18941 18391 ft 365 kts 124°
2026-05-04 19:13 53.76897 -4.15425 17878 ft 364 kts 125°
2026-05-04 19:13 53.75458 -4.11931 17407 ft 361 kts 125°
2026-05-04 19:13 53.74026 -4.08456 16945 ft 359 kts 125°
2026-05-04 19:14 53.72603 -4.05007 16489 ft 357 kts 125°
2026-05-04 19:14 53.71184 -4.01580 16036 ft 355 kts 126°
2026-05-04 19:14 53.69772 -3.98179 15592 ft 353 kts 126°
2026-05-04 19:14 53.68444 -3.94706 15127 ft 352 kts 118°
2026-05-04 19:15 53.67469 -3.90914 14680 ft 351 kts 112°
2026-05-04 19:15 53.66569 -3.87096 14231 ft 350 kts 112°
2026-05-04 19:15 53.65668 -3.83289 13763 ft 349 kts 112°
2026-05-04 19:15 53.64764 -3.79503 13281 ft 347 kts 112°
2026-05-04 19:16 53.63859 -3.75745 12826 ft 345 kts 112°
2026-05-04 19:16 53.62960 -3.72019 12362 ft 343 kts 112°
2026-05-04 19:16 53.62019 -3.68345 11895 ft 340 kts 118°
2026-05-04 19:16 53.60713 -3.65050 11428 ft 337 kts 131°
2026-05-04 19:17 53.59069 -3.62251 10971 ft 335 kts 137°
2026-05-04 19:17 53.57387 -3.59545 10515 ft 334 kts 137°
2026-05-04 19:17 53.55738 -3.56878 10363 ft 323 kts 137°
2026-05-04 19:17 53.54151 -3.54302 10240 ft 312 kts 137°
2026-05-04 19:18 53.52637 -3.51848 10100 ft 302 kts 137°
2026-05-04 19:18 53.51139 -3.49425 9915 ft 298 kts 137°
2026-05-04 19:18 53.49620 -3.46971 9315 ft 304 kts 138°
2026-05-04 19:18 53.48240 -3.44345 9089 ft 298 kts 125°
2026-05-04 19:19 53.47269 -3.41317 8841 ft 292 kts 116°
2026-05-04 19:19 53.46412 -3.38315 8589 ft 278 kts 116°
2026-05-04 19:19 53.45596 -3.35483 8353 ft 262 kts 116°
2026-05-04 19:19 53.44817 -3.32796 8118 ft 253 kts 117°
2026-05-04 19:20 53.44050 -3.30148 7863 ft 251 kts 117°
2026-05-04 19:20 53.43292 -3.27505 7561 ft 251 kts 114°
2026-05-04 19:20 53.42937 -3.24663 7304 ft 249 kts 93°
2026-05-04 19:20 53.42889 -3.21775 7078 ft 246 kts 90°
2026-05-04 19:21 53.42877 -3.18930 6867 ft 242 kts 90°
2026-05-04 19:21 53.42867 -3.16116 6610 ft 242 kts 90°
2026-05-04 19:21 53.42854 -3.13307 6358 ft 240 kts 90°
2026-05-04 19:21 53.42842 -3.10519 6097 ft 238 kts 90°
2026-05-04 19:22 53.42825 -3.07757 5840 ft 237 kts 90°
2026-05-04 19:22 53.42796 -3.05003 5576 ft 236 kts 90°
2026-05-04 19:22 53.42764 -3.02265 5335 ft 234 kts 89°
2026-05-04 19:22 53.42737 -2.99551 5095 ft 232 kts 90°
2026-05-04 19:23 53.42713 -2.96859 4835 ft 231 kts 90°
2026-05-04 19:23 53.42686 -2.94175 4583 ft 230 kts 90°
2026-05-04 19:23 53.42651 -2.91493 4307 ft 229 kts 89°
2026-05-04 19:23 53.42613 -2.88829 4040 ft 228 kts 90°
2026-05-04 19:24 53.42578 -2.86189 3770 ft 227 kts 90°
2026-05-04 19:24 53.42535 -2.83548 3486 ft 227 kts 90°
2026-05-04 19:24 53.42482 -2.80908 3228 ft 226 kts 90°
2026-05-04 19:24 53.42425 -2.78269 3018 ft 226 kts 90°
2026-05-04 19:25 53.42365 -2.75645 2856 ft 226 kts 90°
2026-05-04 19:25 53.42301 -2.73026 2700 ft 225 kts 89°
2026-05-04 19:25 53.42225 -2.70408 2546 ft 225 kts 90°
2026-05-04 19:25 53.42124 -2.67809 2388 ft 225 kts 98°
2026-05-04 19:26 53.41448 -2.65478 2218 ft 224 kts 133°
2026-05-04 19:26 53.40143 -2.64203 2090 ft 218 kts 169°
2026-05-04 19:26 53.38684 -2.63924 2010 ft 204 kts 179°
2026-05-04 19:26 53.37322 -2.63854 1969 ft 189 kts 184°
2026-05-04 19:27 53.36091 -2.64316 1977 ft 178 kts 208°
2026-05-04 19:27 53.35098 -2.65417 1981 ft 172 kts 229°
2026-05-04 19:27 53.34404 -2.66993 1947 ft 166 kts 250°
2026-05-04 19:27 53.34094 -2.68758 1800 ft 151 kts 270°
2026-05-04 19:28 53.34016 -2.70479 1630 ft 147 kts 271°
2026-05-04 19:28 53.33941 -2.72170 1457 ft 145 kts 269°
2026-05-04 19:28 53.33865 -2.73845 1261 ft 144 kts 270°
2026-05-04 19:28 53.33787 -2.75505 1048 ft 142 kts 270°
2026-05-04 19:29 53.33713 -2.77159 844 ft 143 kts 270°
2026-05-04 19:29 53.33638 -2.78801 658 ft 140 kts 270°
2026-05-04 19:29 53.33566 -2.80408 466 ft 138 kts 270°
2026-05-04 19:29 53.33495 -2.82013 274 ft 139 kts 270°
2026-05-04 19:30 53.33424 -2.83631 91 ft 138 kts 271°
2026-05-04 19:30 53.33365 -2.84951 74 ft 75 kts 265°
2026-05-04 19:30 53.33398 -2.85428 85 ft 27 kts 294°
2026-05-04 19:30 53.33441 -2.85599 84 ft 12 kts 291°
2026-05-04 19:31 53.33481 -2.85684 84 ft 7 kts
2026-05-04 19:31 53.33498 -2.85640 87 ft 4 kts 84°
2026-05-04 19:31 53.33502 -2.85551 84 ft 10 kts 83°
2026-05-04 19:31 53.33544 -2.85504 87 ft 8 kts 359°
2026-05-04 19:32 53.33603 -2.85508 85 ft 9 kts 358°
2026-05-04 19:32 53.33653 -2.85512 85 ft 2 kts 356°
2026-05-04 19:32 53.33660 -2.85513 89 ft 1 kts 355°
2026-05-04 19:32 53.33665 -2.85513 89 ft 0 kts 355°